[[{"header":{"parameterUnit":"m.s-1","parameterCategory":1,"la1":30.2991,"la2":30.254,"lo1":-89.0895,"lo2":-89.0444,"dy":0.0017,"dx":0.0017,"nx":28,"ny":28,"refTime":"2025-04-17T21:00:00:Z","depth":0,"parameterNumber":2,"parameterNumberName":"U-component_of_WINDS"},"data":[0,0,0,0,0,0,0,0,0,0,0,0,0,0,0,0,0,0,0,0,0,0,0,0,0,0,0,0,0,0,0,0,0,0,0,0,0,0,0,0,0,0,0,0,0,0,0,0,0,0,0,0,0,0,0,0,0,0,-2.0576,-2.0576,0,-2.0567,-2.0567,-2.0567,-2.0536,-2.0535,-2.0534,-2.0534,-2.0524,-2.0524,-2.0524,0,0,0,0,0,0,0,0,0,0,0,0,0,-2.0569,-2.0569,-2.0576,-2.0576,-2.0576,-2.0567,-2.0567,-2.0567,-2.0536,-2.0535,-2.0534,-2.0533,-2.0523,-2.0524,-2.0524,0,0,0,0,0,0,0,0,0,0,0,0,0,-2.0567,-2.0569,-2.0576,-2.056,-2.0558,-2.0567,-2.0567,-2.0567,-2.0536,-2.0535,-2.0534,-2.0533,-2.0523,-2.0524,-2.0524,-2.0549,0,0,-2.0526,-2.0526,0,0,0,0,0,0,0,0,-2.0567,-2.0567,-2.0562,-2.0561,-2.0559,-2.0552,-2.056,-2.0561,-2.0536,-2.0544,-2.0534,-2.0533,-2.0534,-2.0533,-2.0534,-2.0548,-2.0548,-2.0526,-2.0526,-2.0527,-2.0527,0,0,0,0,0,0,0,-2.0567,-2.0567,-2.0573,-2.0562,-2.056,-2.0553,-2.0552,-2.056,-2.0545,-2.0544,-2.0541,-2.0541,-2.0533,-2.0533,-2.0533,-2.0547,-2.0526,-2.0527,-2.0527,-2.0527,-2.0583,-2.0584,0,0,0,0,0,0,-2.057,-2.0568,-2.0573,-2.0572,-2.0561,-2.0554,-2.0552,-2.0555,-2.0545,-2.0542,-2.0542,-2.0539,-2.0533,-2.0533,-2.0533,-2.0561,-2.0527,-2.0527,-2.0528,-2.0582,-2.0583,-2.0584,0,0,0,0,0,0,-2.057,-2.057,-2.0573,-2.0569,-2.0569,-2.0555,-2.0558,-2.0555,-2.0556,-2.0543,-2.054,-2.0545,-2.0532,-2.0532,-2.0545,-2.056,-2.0527,-2.0528,-2.058,-2.0582,-2.0584,-2.0618,0,0,0,0,0,0,-2.0569,-2.0571,-2.0579,-2.057,-2.057,-2.0586,-2.0559,-2.0556,-2.0557,-2.0554,-2.0546,-2.0543,-2.0531,-2.0545,-2.0546,-2.056,-2.0528,-2.0579,-2.0581,-2.0583,-2.0615,-2.062,-2.0625,0,0,0,0,0,-2.0569,-2.0589,-2.058,-2.0581,-2.058,-2.0587,-2.0587,-2.0572,-2.0558,-2.0567,-2.056,-2.0544,-2.0559,-2.0546,-2.0547,-2.0562,-2.0578,-2.058,-2.0583,-2.0613,-2.0619,-2.0625,0,0,0,0,0,0,-2.06,-2.0587,-2.0577,-2.0594,-2.0592,-2.0581,-2.0592,-2.0579,-2.058,-2.0578,-2.056,-2.0558,-2.0574,-2.057,-2.0556,-2.0586,-2.0566,-2.0569,-2.0588,-2.0594,-2.0599,-2.0599,-2.0529,0,0,0,0,0,-2.0609,-2.0615,-2.0604,-2.062,-2.0619,-2.0606,-2.0608,-2.0598,-2.0594,-2.0593,-2.0586,-2.0583,-2.0588,-2.0591,-2.0594,-2.0615,-2.0613,-2.0626,-2.0631,-2.0635,-2.0637,-2.0649,-2.0654,-2.0593,-2.0593,-2.0592,0,0,-2.0627,-2.0621,-2.0625,-2.0626,-2.0623,-2.063,-2.0605,-2.0613,-2.0619,-2.0594,-2.0606,-2.0601,-2.0597,-2.0615,-2.0622,-2.0612,-2.0654,-2.0638,-2.0641,-2.0641,-2.0652,-2.0658,-2.0663,-2.0594,-2.0594,-2.0594,0,0,-2.0663,-2.0659,-2.0672,-2.067,-2.0666,-2.0658,-2.0661,-2.0653,-2.0649,-2.0661,-2.0643,-2.0649,-2.0657,-2.0655,-2.0655,-2.0693,-2.0679,-2.0695,-2.0719,-2.0731,-2.0736,-2.074,-2.0754,-2.0759,-2.0697,-2.0697,-2.0697,0,-2.0686,-2.0696,-2.0681,-2.0691,-2.0692,-2.0671,-2.0685,-2.0683,-2.068,-2.0682,-2.067,-2.068,-2.0676,-2.0693,-2.0703,-2.0703,-2.0707,-2.0695,-2.0736,-2.074,-2.0744,-2.0757,-2.0762,-2.0699,-2.0699,-2.0699,-2.0699,0,-2.0724,-2.0731,-2.0743,-2.0741,-2.0744,-2.0755,-2.0743,-2.0747,-2.0737,-2.073,-2.0743,-2.0738,-2.074,-2.0744,-2.0733,-2.076,-2.0753,-2.074,-2.0719,-2.0752,-2.0764,-2.0769,-2.0702,-2.0701,-2.0701,-2.07,0,0,-2.0778,-2.0769,-2.0774,-2.0773,-2.0768,-2.0773,-2.0785,-2.0788,-2.0792,-2.0791,-2.08,-2.0808,-2.0796,-2.0796,-2.0786,-2.0796,-2.0827,-2.0781,-2.078,-2.079,-2.0857,-2.0867,-2.0873,-2.0818,-2.0819,-2.082,-2.0857,0,-2.0813,-2.0831,-2.0819,-2.084,-2.0847,-2.0828,-2.0838,-2.0837,-2.0831,-2.0836,-2.083,-2.0836,-2.0819,-2.0819,-2.0828,-2.0821,-2.084,-2.0819,-2.0827,-2.0827,-2.0828,-2.0879,-2.0889,-2.0925,-2.0861,-2.0862,-2.0863,0,-2.0855,-2.0857,-2.0879,-2.0873,-2.0876,-2.0885,-2.0887,-2.0892,-2.089,-2.0886,-2.0887,-2.0874,-2.0886,-2.0866,-2.0882,-2.0867,-2.087,-2.0868,-2.0869,-2.0869,-2.0847,-2.088,-2.0935,-2.0941,-2.087,-2.0869,-2.0869,0,-2.0893,-2.0901,-2.0915,-2.0915,-2.0909,-2.0916,-2.0914,-2.0911,-2.0914,-2.0916,-2.0917,-2.0921,-2.0922,-2.0926,-2.0915,-2.0901,-2.0932,-2.0911,-2.0929,-2.0929,-2.0935,-2.0935,-2.0992,-2.0938,-2.0938,-2.0938,-2.0938,0,-2.0933,-2.0947,-2.0932,-2.094,-2.0956,-2.0942,-2.0958,-2.0954,-2.0952,-2.096,-2.0944,-2.0952,-2.0937,-2.0944,-2.0936,-2.095,-2.0951,-2.0948,-2.0945,-2.0949,-2.095,-2.095,-2.0947,-2.0939,-2.0939,-2.0939,-2.0938,0,-2.0977,-2.0967,-2.0981,-2.0975,-2.0974,-2.0986,-2.098,-2.0988,-2.0982,-2.0992,-2.0994,-2.0984,-2.0991,-2.0981,-2.0987,-2.0981,-2.1002,-2.0996,-2.1002,-2.1001,-2.1019,-2.1017,-2.1078,-2.1085,-2.1027,-2.1027,-2.1028,0,-2.1002,-2.1013,-2.1008,-2.1012,-2.1011,-2.1018,-2.1021,-2.1009,-2.1013,-2.1012,-2.1021,-2.1027,-2.103,-2.1043,-2.1036,-2.1041,-2.1035,-2.1056,-2.1035,-2.1039,-2.1035,-2.1035,-2.1036,-2.106,-2.1061,-2.1061,-2.1062,0,-2.105,-2.1045,-2.105,-2.1053,-2.1058,-2.106,-2.1061,-2.1065,-2.1053,-2.1058,-2.1065,-2.1068,-2.1075,-2.1081,-2.1085,-2.1083,-2.107,-2.1068,-2.1073,-2.1076,-2.108,-2.1078,-2.1014,-2.1067,-2.1066,-2.1066,-2.1066,-2.1065,-2.1085,-2.1094,-2.1092,-2.1099,-2.1098,-2.11,-2.1108,-2.1103,-2.1109,-2.1113,-2.1106,-2.1115,-2.1114,-2.1118,-2.1117,-2.1125,-2.1116,-2.1122,-2.1123,-2.1125,-2.1128,-2.1079,-2.1125,-2.1125,-2.1125,-2.1125,-2.1125,0,-2.1132,-2.113,-2.1136,-2.1138,-2.1144,-2.1132,-2.1133,-2.1139,-2.1147,-2.1147,-2.1152,-2.1161,-2.1167,-2.1162,-2.1167,-2.1174,-2.1169,-2.1176,-2.1175,-2.1175,-2.1135,-2.1131,-2.1181,-2.1181,-2.1181,-2.1181,-2.1181,-2.1181,-2.1157,-2.1171,-2.1166,-2.1181,-2.1179,-2.1188,-2.119,-2.1192,-2.1192,-2.1203,-2.1208,-2.1205,-2.1203,-2.1208,-2.1214,-2.1212,-2.1215,-2.1225,-2.1221,-2.1184,-2.1178,-2.1173,-2.1169,-2.1225,-2.1225,-2.126,-2.126,-2.1261]},{"header":{"parameterUnit":"m.s-1","parameterCategory":1,"la1":30.2991,"la2":30.254,"lo1":-89.0895,"lo2":-89.0444,"dy":0.0017,"dx":0.0017,"nx":28,"ny":28,"refTime":"2025-04-17T21:00:00:Z","depth":0,"parameterNumber":3,"parameterNumberName":"V-component_of_WINDS"},"data":[0,0,0,0,0,0,0,0,0,0,0,0,0,0,0,0,0,0,0,0,0,0,0,0,0,0,0,0,0,0,0,0,0,0,0,0,0,0,0,0,0,0,0,0,0,0,0,0,0,0,0,0,0,0,0,0,0,0,5.4522,5.4521,0,5.451,5.451,5.451,5.4489,5.4488,5.4488,5.4488,5.4472,5.4472,5.4472,0,0,0,0,0,0,0,0,0,0,0,0,0,5.4523,5.4523,5.4522,5.4521,5.4521,5.451,5.451,5.451,5.4489,5.4488,5.4488,5.4488,5.4472,5.4472,5.4472,0,0,0,0,0,0,0,0,0,0,0,0,0,5.4518,5.4523,5.4522,5.451,5.4508,5.451,5.451,5.451,5.4489,5.4488,5.4488,5.4487,5.4472,5.4472,5.4472,5.4483,0,0,5.4472,5.4472,0,0,0,0,0,0,0,0,5.4518,5.4518,5.4512,5.451,5.4509,5.45,5.4505,5.4501,5.4489,5.4496,5.4488,5.4487,5.4482,5.4481,5.448,5.4482,5.4482,5.4472,5.4471,5.4471,5.4471,0,0,0,0,0,0,0,5.4519,5.4518,5.4517,5.4511,5.451,5.4504,5.4503,5.4504,5.4492,5.4496,5.4494,5.4493,5.4481,5.448,5.4479,5.4481,5.4472,5.4471,5.4471,5.4471,5.4494,5.4495,0,0,0,0,0,0,5.4521,5.4519,5.4517,5.4517,5.4513,5.4505,5.4503,5.4504,5.4492,5.449,5.4494,5.4492,5.448,5.4479,5.4479,5.4492,5.4471,5.4471,5.4471,5.4494,5.4494,5.4495,0,0,0,0,0,0,5.4521,5.4521,5.4518,5.4517,5.4516,5.4505,5.4506,5.4504,5.4503,5.4491,5.4488,5.4495,5.448,5.4479,5.4483,5.4491,5.4471,5.4471,5.4493,5.4494,5.4495,5.4519,0,0,0,0,0,0,5.4522,5.4522,5.4526,5.4518,5.4517,5.4523,5.4507,5.4504,5.4503,5.4501,5.4491,5.4489,5.4479,5.4483,5.4483,5.4491,5.4471,5.4492,5.4493,5.4495,5.4517,5.452,5.4523,0,0,0,0,0,5.4522,5.4532,5.4526,5.4526,5.4522,5.4523,5.4523,5.4512,5.4504,5.4508,5.4501,5.4489,5.4491,5.4484,5.4483,5.4491,5.4491,5.4493,5.4494,5.4516,5.452,5.4523,0,0,0,0,0,0,5.4539,5.453,5.4524,5.4532,5.4529,5.452,5.4525,5.4516,5.4514,5.4512,5.4498,5.4496,5.4502,5.4497,5.449,5.4502,5.4489,5.4491,5.4506,5.4509,5.4512,5.4513,5.4471,0,0,0,0,0,5.4545,5.4548,5.4539,5.4547,5.4546,5.4536,5.4536,5.4528,5.4524,5.4522,5.4515,5.451,5.4509,5.4509,5.4507,5.4516,5.4514,5.4522,5.4525,5.4528,5.4529,5.4535,5.4538,5.45,5.45,5.45,0,0,5.4555,5.455,5.4552,5.455,5.4547,5.455,5.4535,5.4537,5.4539,5.4522,5.4526,5.4521,5.4514,5.4522,5.4524,5.4517,5.4539,5.4529,5.4532,5.4531,5.4537,5.454,5.4543,5.4501,5.4501,5.4501,0,0,5.4575,5.4571,5.4578,5.4576,5.4572,5.4566,5.4568,5.456,5.4557,5.4561,5.4549,5.455,5.4549,5.4546,5.4544,5.4565,5.4555,5.4565,5.4581,5.4587,5.459,5.4593,5.4601,5.4604,5.4567,5.4567,5.4567,0,5.4587,5.4592,5.4583,5.4587,5.4587,5.4574,5.4581,5.4578,5.4574,5.4573,5.4566,5.4566,5.4561,5.4568,5.4573,5.4572,5.4574,5.4566,5.459,5.4593,5.4595,5.4603,5.4606,5.4568,5.4568,5.4568,5.4568,0,5.4608,5.4612,5.4618,5.4616,5.4616,5.4622,5.4613,5.4615,5.4608,5.4602,5.4608,5.4601,5.4599,5.46,5.4592,5.4607,5.4603,5.4593,5.458,5.46,5.4608,5.4611,5.457,5.4569,5.4569,5.4569,0,0,5.4637,5.4633,5.4635,5.4635,5.463,5.4632,5.4638,5.4638,5.464,5.4637,5.4642,5.4642,5.4635,5.4632,5.4624,5.4629,5.4649,5.4619,5.4619,5.4626,5.4665,5.4673,5.4676,5.4642,5.4643,5.4643,5.4666,0,5.4657,5.4667,5.466,5.4672,5.4675,5.4664,5.4669,5.4666,5.4662,5.4664,5.4658,5.4659,5.4648,5.4647,5.4652,5.4645,5.4656,5.4643,5.4646,5.4646,5.4648,5.468,5.4687,5.4709,5.4669,5.4669,5.4669,0,5.468,5.4682,5.4694,5.4691,5.4692,5.4697,5.4697,5.4699,5.4697,5.4693,5.4693,5.4684,5.4689,5.4676,5.4683,5.4675,5.4675,5.4673,5.4673,5.4673,5.4659,5.4681,5.4716,5.4719,5.4674,5.4673,5.4673,0,5.4702,5.4706,5.4715,5.4715,5.4711,5.4715,5.4713,5.471,5.4712,5.4711,5.4712,5.4712,5.4712,5.4712,5.4704,5.4695,5.4712,5.4698,5.4709,5.4709,5.4713,5.4713,5.4749,5.4713,5.4713,5.4713,5.4713,0,5.4724,5.4733,5.4725,5.473,5.4739,5.4731,5.474,5.4737,5.4735,5.4739,5.4728,5.4732,5.4721,5.4724,5.4717,5.4724,5.4724,5.4721,5.4719,5.4722,5.4723,5.4723,5.4721,5.4714,5.4713,5.4713,5.4713,0,5.475,5.4745,5.4754,5.475,5.475,5.4757,5.4754,5.4758,5.4754,5.476,5.476,5.4753,5.4756,5.4748,5.4749,5.4744,5.4756,5.4751,5.4757,5.4756,5.4768,5.4767,5.4805,5.481,5.477,5.4771,5.4771,0,5.4765,5.4771,5.477,5.4773,5.4772,5.4777,5.4779,5.4771,5.4773,5.4772,5.4777,5.478,5.4781,5.4786,5.4781,5.4782,5.4777,5.4791,5.4777,5.4781,5.4778,5.4779,5.478,5.4793,5.4794,5.4794,5.4794,0,5.4792,5.479,5.4794,5.4797,5.48,5.4802,5.4803,5.4806,5.4798,5.4801,5.4805,5.4806,5.4809,5.4812,5.4812,5.481,5.4801,5.4799,5.4802,5.4805,5.4809,5.4808,5.4765,5.4798,5.4798,5.4797,5.4797,5.4797,5.4813,5.4819,5.482,5.4824,5.4825,5.4827,5.4832,5.4829,5.4833,5.4835,5.483,5.4836,5.4835,5.4835,5.4833,5.4837,5.4831,5.4835,5.4836,5.4837,5.4839,5.4808,5.4837,5.4837,5.4837,5.4837,5.4837,0,5.484,5.4841,5.4846,5.4849,5.4853,5.4846,5.4848,5.4851,5.4857,5.4857,5.486,5.4865,5.4868,5.4864,5.4866,5.487,5.4867,5.4871,5.4871,5.4871,5.4844,5.4842,5.4875,5.4875,5.4875,5.4875,5.4875,5.4875,5.4855,5.4866,5.4864,5.4875,5.4875,5.4882,5.4883,5.4885,5.4885,5.4892,5.4896,5.4894,5.4892,5.4895,5.4897,5.4896,5.4898,5.4904,5.4901,5.4876,5.4872,5.4869,5.4867,5.4904,5.4904,5.4928,5.4928,5.4928]}]]